CAPE
88 52 0 0 0 0 0 0 0 0 0 0 0 0 0 0 0 0 0 0 0 0 0 0 0 0 0 0 0 0 0 0 0 0 0 0 0 0 0 0 0 0 0
28 25 2 0 0 0 0 0 0 0 0 0 0 0 0 0 0 0 0 0 0 0 0 0 0 0 0 0 0 0 0 0 0 0 0 0 0 0 0 0 0 0 0
66 18 5 0 0 0 0 0 0 0 0 0 0 0 0 0 0 0 0 0 0 0 0 0 0 0 0 0 0 0 0 0 0 0 0 0 0 0 0 0 0 0 0
82 42 27 19 0 0 0 0 0 0 0 0 0 0 0 0 0 0 0 0 0 0 0 0 0 0 0 0 0 0 0 0 0 0 0 0 0 0 0 0 0 0 0
141 58 65 26 8 0 0 0 0 0 0 0 0 0 0 0 0 0 0 0 0 0 0 0 0 0 0 0 0 0 0 0 0 0 0 0 0 0 0 0 0 0 0
43 59 52 17 0 4 0 0 0 0 0 0 0 0 0 0 0 0 0 0 0 0 0 0 0 0 0 0 0 0 0 0 0 0 0 0 0 0 0 0 0 0 0
8 32 44 20 16 27 8 0 0 0 0 0 0 0 0 0 0 0 0 0 0 0 0 0 0 0 0 0 0 0 0 0 0 0 0 0 0 0 0 0 0 0 0
0 0 6 2 1 3 16 10 1 0 0 0 0 0 0 0 0 0 0 0 0 0 0 0 0 0 0 0 0 0 0 0 0 0 0 0 0 0 0 0 0 0 0
0 0 0 0 0 1 0 0 23 1 0 0 0 0 0 0 0 0 0 0 0 0 0 0 0 0 0 0 0 0 0 0 0 0 0 0 0 0 0 0 0 0 0
0 0 0 0 0 0 0 1 0 13 0 0 0 0 0 0 0 0 0 0 0 0 0 0 0 0 0 0 0 0 0 0 0 0 0 0 0 0 0 0 0 0 0
0 0 0 0 0 0 0 0 0 0 0 0 0 0 0 0 0 0 0 0 0 0 0 0 0 0 0 0 0 0 0 0 0 0 0 0 0 0 0 0 0 0 0
0 0 0 0 0 0 0 0 0 0 0 0 0 0 0 0 0 0 0 0 0 0 0 0 0 0 0 0 0 0 0 0 0 0 0 0 0 0 0 0 0 0 0
0 0 0 0 0 0 0 0 0 0 0 0 0 0 0 0 0 0 0 0 0 0 0 0 0 0 0 0 0 0 0 0 0 0 0 0 0 0 0 0 0 0 0
0 0 0 0 0 0 0 0 0 0 0 0 0 0 0 0 0 0 0 0 0 0 0 0 0 0 0 0 0 0 0 0 0 0 0 0 0 0 0 0 0 0 0
0 0 0 0 0 0 0 0 0 0 0 0 0 0 0 0 0 0 0 0 0 0 0 0 0 0 0 0 0 0 0 0 0 0 0 0 0 0 0 0 0 0 0
0 0 0 0 0 0 0 0 0 0 0 0 0 0 0 0 0 0 0 0 0 0 0 0 0 0 0 3 2 0 0 0 0 0 0 0 0 0 0 0 0 0 0
0 0 0 0 0 0 0 0 0 0 0 0 0 0 0 0 0 0 0 0 0 0 0 0 0 0 0 7 5 0 0 0 0 0 0 0 0 0 0 0 0 0 0
0 0 0 0 0 0 0 0 0 0 0 0 0 0 0 0 0 0 0 0 0 0 0 0 0 0 0 9 2 3 0 0 0 0 0 0 0 0 0 0 0 0 0
0 0 0 0 0 0 0 0 0 0 0 0 0 0 0 0 0 0 0 0 0 0 0 0 0 0 0 3 6 1 0 0 0 0 0 0 0 0 0 0 0 0 0
0 0 0 0 0 0 0 0 0 0 0 0 0 0 0 0 0 0 0 0 0 0 0 0 0 0 0 6 7 0 0 0 0 0 0 0 0 0 0 0 0 0 0
0 0 0 0 0 0 0 0 0 0 0 0 0 0 0 0 0 0 0 0 0 0 0 0 0 0 0 1 4 0 0 0 0 0 0 0 0 0 0 0 0 0 0
0 0 0 0 0 0 0 0 0 0 0 0 0 0 0 0 0 0 0 0 0 0 0 0 0 0 0 0 0 0 0 0 0 0 0 0 0 0 0 0 0 3 0
0 0 0 0 0 0 0 0 0 0 0 0 0 0 0 0 0 0 0 0 0 0 0 0 0 0 0 0 0 0 0 0 0 0 0 0 0 0 0 0 2 0 0
1 2 2 2 1 0 0 0 0 0 0 0 0 0 0 0 0 0 0 0 0 0 0 0 0 0 0 0 0 0 0 1 0 0 0 0 0 0 0 0 0 0 0
8 3 1 1 0 0 0 0 0 0 0 0 0 0 0 0 0 0 0 0 0 0 0 0 0 0 0 0 0 0 0 0 0 0 0 0 0 0 0 0 0 0 0
6 9 6 9 4 1 0 0 0 0 0 0 0 0 0 0 0 0 0 11 1 2 0 0 0 0 0 0 1 1 0 0 0 0 0 0 0 0 0 0 0 0 0
CIN
-3 -0 -0 -0 -0 -0 -0 -0 -0 -0 -0 -0 -0 -0 -0 -0 -0 -0 -0 -0 -0 -0 -0 -0 -0 -0 -0 -0 -0 -0 -0 -0 -0 -0 -0 -0 -0 -0 -0 -0 -0 -0 -0
-1 -10 -0 -0 -0 -0 -0 -0 -0 -0 -0 -0 -0 -0 -0 -0 -0 -0 -0 -0 -0 -0 -0 -0 -0 -0 -0 -0 -0 -0 -0 -0 -0 -0 -0 -0 -0 -0 -0 -0 -0 -0 -0
-28 -3 -76 -0 -0 -0 -0 -0 -0 -0 -0 -0 -0 -0 -0 -0 -0 -0 -0 -0 -0 -0 -0 -0 -0 -0 -0 -0 -0 -0 -0 -0 -0 -0 -0 -0 -0 -0 -0 -0 -0 -0 -0
-16 -2 -39 -82 -0 -0 -0 -0 -0 -0 -0 -0 -0 -0 -0 -0 -0 -0 -0 -0 -0 -0 -0 -0 -0 -0 -0 -0 -0 -0 -0 -0 -0 -0 -0 -0 -0 -0 -0 -0 -0 -0 -0
-53 -48 -49 -50 -36 -0 -0 -0 -0 -0 -0 -0 -0 -0 -0 -0 -0 -0 -0 -0 -0 -0 -0 -0 -0 -0 -0 -0 -0 -0 -0 -0 -0 -0 -0 -0 -0 -0 -0 -0 -0 -0 -0
-142 -66 -38 -73 -0 -164 -0 -0 -0 -0 -0 -0 -0 -0 -0 -0 -0 -0 -0 -0 -0 -0 -0 -0 -0 -0 -0 -0 -0 -0 -0 -0 -0 -0 -0 -0 -0 -0 -0 -0 -0 -0 -0
-101 -115 -74 -88 -105 -78 -73 -0 -0 -0 -0 -0 -0 -0 -0 -0 -0 -0 -0 -0 -0 -0 -0 -0 -0 -0 -0 -0 -0 -0 -0 -0 -0 -0 -0 -0 -0 -0 -0 -0 -0 -0 -0
-0 -8 -56 -11 -13 -109 -84 -74 -93 -0 -0 -0 -0 -0 -0 -0 -0 -0 -0 -0 -0 -0 -0 -0 -0 -0 -0 -0 -0 -0 -0 -0 -0 -0 -0 -0 -0 -0 -0 -0 -0 -0 -0
-0 -0 -0 -0 -0 -62 -40 -0 -81 -142 -0 -0 -0 -0 -0 -0 -0 -0 -0 -0 -0 -0 -0 -0 -0 -0 -0 -0 -0 -0 -0 -0 -0 -0 -0 -0 -0 -0 -0 -0 -0 -0 -0
-0 -0 -0 -0 -0 -0 -0 -112 -20 -97 -0 -0 -0 -0 -0 -0 -0 -0 -0 -0 -0 -0 -0 -0 -0 -0 -0 -0 -0 -0 -0 -0 -0 -0 -0 -0 -0 -0 -0 -0 -0 -0 -0
-0 -0 -0 -0 -0 -0 -0 -0 -0 -0 -0 -0 -0 -0 -0 -0 -0 -0 -0 -0 -0 -0 -0 -0 -0 -0 -0 -0 -0 -0 -0 -0 -0 -0 -0 -0 -0 -0 -0 -0 -0 -0 -0
-0 -0 -0 -0 -0 -0 -0 -0 -0 -0 -0 -0 -0 -0 -0 -0 -0 -0 -0 -0 -0 -0 -0 -0 -0 -0 -0 -0 -0 -0 -0 -0 -0 -0 -0 -0 -0 -0 -0 -0 -0 -0 -0
-0 -0 -0 -0 -0 -0 -0 -0 -0 -0 -0 -0 -0 -0 -0 -0 -0 -0 -0 -0 -0 -0 -0 -0 -0 -0 -0 -0 -0 -0 -0 -0 -0 -0 -0 -0 -0 -0 -0 -0 -0 -0 -0
-0 -0 -0 -0 -0 -0 -0 -0 -0 -0 -0 -0 -0 -0 -0 -0 -0 -0 -0 -0 -0 -0 -0 -0 -0 -0 -0 -0 -0 -0 -0 -0 -0 -0 -0 -0 -0 -0 -0 -0 -0 -0 -0
-0 -0 -0 -0 -0 -0 -0 -0 -0 -0 -0 -0 -0 -0 -0 -0 -0 -0 -0 -0 -0 -0 -0 -0 -0 -0 -0 -0 -0 -0 -0 -0 -0 -0 -0 -0 -0 -0 -0 -0 -0 -0 -0
-0 -0 -0 -0 -0 -0 -0 -0 -0 -0 -0 -0 -0 -0 -0 -0 -0 -0 -0 -0 -0 -0 -0 -0 -0 -0 -0 -0 -0 -0 -0 -0 -0 -0 -0 -0 -0 -0 -0 -0 -0 -0 -0
-0 -0 -0 -0 -0 -0 -0 -0 -0 -0 -0 -0 -0 -0 -0 -0 -0 -0 -0 -0 -0 -0 -0 -0 -0 -0 -0 -0 -0 -0 -0 -0 -0 -0 -0 -0 -0 -0 -0 -0 -0 -0 -0
-0 -0 -0 -0 -0 -0 -0 -0 -0 -0 -0 -0 -0 -0 -0 -0 -0 -0 -0 -0 -0 -0 -0 -0 -0 -0 -0 -0 -0 -0 -0 -0 -0 -0 -0 -0 -0 -0 -0 -0 -0 -0 -0
-0 -0 -0 -0 -0 -0 -0 -0 -0 -0 -0 -0 -0 -0 -0 -0 -0 -0 -0 -0 -0 -0 -0 -0 -0 -0 -0 -0 -0 -0 -0 -0 -0 -0 -0 -0 -0 -0 -0 -0 -0 -0 -0
-0 -0 -0 -0 -0 -0 -0 -0 -0 -0 -0 -0 -0 -0 -0 -0 -0 -0 -0 -0 -0 -0 -0 -0 -0 -0 -0 -0 -0 -0 -0 -0 -0 -0 -0 -0 -0 -0 -0 -0 -0 -0 -0
-0 -0 -0 -0 -0 -0 -0 -0 -0 -0 -0 -0 -0 -0 -0 -0 -0 -0 -0 -0 -0 -0 -0 -0 -0 -0 -0 -0 -0 -0 -0 -0 -0 -0 -0 -0 -0 -0 -0 -0 -0 -0 -0
-0 -0 -0 -0 -0 -0 -0 -0 -0 -0 -0 -0 -0 -0 -0 -0 -0 -0 -0 -0 -0 -0 -0 -0 -0 -0 -0 -0 -0 -0 -0 -0 -0 -0 -0 -0 -0 -0 -0 -0 -0 -0 -0
-0 -0 -0 -0 -0 -0 -0 -0 -0 -0 -0 -0 -0 -0 -0 -0 -0 -0 -0 -0 -0 -0 -0 -0 -0 -0 -0 -0 -0 -0 -0 -0 -0 -0 -0 -0 -0 -0 -0 -0 -0 -0 -0
-0 -0 -0 -0 -0 -0 -0 -0 -0 -0 -0 -0 -0 -0 -0 -0 -0 -0 -0 -0 -0 -0 -0 -0 -0 -0 -0 -0 -0 -0 -0 -0 -0 -0 -0 -0 -0 -0 -0 -0 -0 -0 -0
-0 -0 -0 -1 -0 -0 -0 -0 -0 -0 -0 -0 -0 -0 -0 -0 -0 -0 -0 -0 -0 -0 -0 -0 -0 -0 -0 -0 -0 -0 -0 -0 -0 -0 -0 -0 -0 -0 -0 -0 -0 -0 -0
-0 -0 -0 -0 -0 -0 -0 -0 -0 -0 -0 -0 -0 -0 -0 -0 -0 -0 -0 -0 -0 -0 -0 -0 -0 -0 -0 -0 -0 -0 -0 -0 -0 -0 -0 -0 -0 -0 -0 -0 -0 -0 -0
Wind_Speed
7 4 10 11 12 10 9 10 8 7 6 3 4 3 4 2 2 3 7 6 6 6 6 4 5 5 5 5 6 4 4 3 2 4 3 3 2 4 4 4 4 5 5
11 8 11 8 5 6 7 7 7 7 5 4 3 3 3 2 2 3 5 6 6 7 6 6 5 6 5 5 5 5 3 3 3 4 3 1 2 1 2 2 4 5 4
15 11 14 13 9 3 5 10 8 8 6 6 4 4 4 3 2 1 3 4 7 7 7 7 6 6 4 5 5 5 6 4 1 1 4 3 4 2 0 3 3 5 3
9 10 13 13 14 11 10 9 8 10 8 8 6 7 5 5 4 5 3 4 6 7 7 7 7 7 5 6 5 5 4 5 5 2 2 2 4 4 1 0 2 3 2
15 16 16 15 15 17 13 8 9 11 13 13 13 9 7 4 3 3 7 6 5 6 7 7 7 7 6 7 8 7 6 4 4 4 3 2 2 2 3 3 1 1 1
8 8 9 9 10 9 12 12 11 11 11 13 14 16 14 8 5 5 6 5 4 4 6 6 6 5 5 6 6 6 7 6 4 3 3 4 4 3 3 3 1 2 1
6 7 9 9 9 11 12 12 15 15 14 14 14 14 15 14 13 11 9 8 6 5 7 7 6 5 5 6 5 6 6 7 6 6 4 3 3 3 3 4 2 2 2
5 8 8 9 8 9 9 8 10 12 11 12 13 12 11 7 8 10 9 9 9 8 7 7 7 7 6 5 5 3 4 6 6 8 5 4 4 2 2 4 5 2 2
3 6 7 8 9 9 10 10 9 12 11 14 12 13 11 13 11 11 9 8 8 6 8 8 7 7 7 8 8 5 5 6 4 6 6 5 3 3 4 3 3 5 4
5 6 7 6 5 7 8 11 13 14 14 14 14 12 13 14 12 11 11 11 11 12 12 12 11 10 9 9 8 5 5 6 4 4 6 6 3 4 3 4 3 2 3
9 8 7 6 6 5 7 9 10 11 12 13 14 13 13 13 13 12 13 12 9 11 13 14 13 12 11 10 9 8 7 8 6 4 6 6 5 4 4 4 3 3 3
9 9 7 5 4 5 5 6 6 6 9 9 11 13 13 11 12 12 12 12 13 12 12 13 13 13 11 10 11 11 9 9 6 5 7 6 4 5 4 3 4 3 2
8 6 5 6 7 6 5 6 6 7 7 8 9 9 12 14 15 13 12 12 11 10 11 13 13 12 12 10 9 10 10 8 4 5 5 6 6 4 3 3 4 3 3
7 7 5 4 5 7 7 6 6 6 7 7 10 11 12 13 13 12 12 14 14 14 12 10 11 11 13 13 12 11 9 9 6 5 6 6 5 6 6 4 4 3 3
6 5 6 7 7 5 6 5 5 5 4 6 6 9 9 10 11 10 11 11 13 14 12 12 13 12 10 7 10 10 9 7 5 5 4 5 7 9 8 4 4 4 2
6 7 7 8 7 7 7 6 6 5 2 4 5 4 5 8 10 10 11 13 13 14 15 16 16 15 9 19 19 12 9 7 7 7 5 4 8 9 10 8 10 7 4
8 9 9 8 9 8 7 7 6 3 4 5 5 5 4 5 8 9 11 12 13 14 14 14 15 14 13 24 22 20 10 11 8 8 7 5 4 6 4 4 2 1 2
13 12 7 8 8 7 7 5 4 5 5 6 5 5 6 5 5 7 9 10 10 13 13 13 13 12 11 23 21 21 8 7 7 7 7 6 6 5 5 4 3 4 3
14 12 10 7 8 9 7 6 6 6 6 6 6 6 6 8 8 9 9 9 10 10 11 13 14 14 13 23 21 17 10 7 7 6 6 6 6 7 8 5 4 3 4
16 15 16 10 8 11 6 6 7 6 9 7 7 6 6 8 10 10 10 9 10 10 10 12 11 16 12 22 23 16 7 8 6 4 5 10 6 7 9 4 5 4 5
21 20 17 14 14 10 5 8 8 11 10 7 7 8 8 9 9 10 8 10 10 11 11 12 9 10 11 14 21 18 8 7 6 5 4 3 6 5 3 4 3 5 3
24 22 18 18 18 16 6 11 10 17 7 8 9 9 10 8 9 11 10 11 11 12 12 11 9 8 10 17 19 18 12 12 7 5 4 3 7 6 3 3 5 6 6
20 20 20 20 18 16 11 14 16 9 8 9 10 10 10 9 10 11 10 10 12 11 11 10 11 9 7 7 18 17 15 13 5 4 7 9 8 4 1 4 2 6 3
20 19 20 20 19 17 16 13 16 7 10 12 11 9 10 10 8 6 8 7 8 9 10 12 10 9 8 7 6 6 7 10 7 9 5 6 5 2 3 3 4 3 1
19 20 20 19 22 19 19 15 13 8 10 9 9 10 9 10 8 7 7 7 5 8 10 8 9 10 8 7 11 9 6 5 7 6 3 3 2 2 2 2 2 0 2
19 17 19 20 19 18 17 16 8 10 10 9 8 10 9 9 8 8 6 11 16 18 16 17 12 6 10 17 17 16 15 13 13 3 3 3 3 3 3 2 2 2 3
Wind_Direction
192 307 130 148 144 153 154 158 157 172 147 135 138 137 153 155 154 170 164 164 156 156 152 149 143 148 147 160 144 110 115 56 101 97 48 41 54 159 163 151 144 147 148
132 115 100 110 123 164 171 160 167 169 165 146 135 137 140 158 159 174 173 165 161 160 158 156 164 162 141 150 156 142 127 122 187 132 111 130 329 31 194 150 157 164 151
152 164 148 145 117 180 248 185 178 168 170 157 119 89 78 59 89 175 182 189 167 167 162 164 158 160 151 160 166 153 149 141 147 182 141 135 212 135 15 217 199 175 167
168 173 166 158 171 174 218 217 186 178 178 165 163 165 180 171 201 171 170 178 179 175 172 169 167 168 165 167 170 165 154 139 164 140 111 72 143 163 168 32 214 204 193
173 178 186 173 173 178 208 206 203 195 184 184 185 185 188 181 160 153 160 175 182 182 180 176 175 174 173 173 169 163 163 161 153 150 146 132 80 100 132 176 199 31 314
189 177 189 188 201 183 187 192 207 208 209 200 197 187 189 170 163 178 178 181 177 187 188 185 178 177 169 172 168 162 160 161 152 141 154 156 162 174 145 118 167 166 294
162 162 186 198 202 201 200 191 205 207 211 209 204 205 202 184 187 184 190 181 180 187 194 175 178 171 165 161 155 153 155 155 150 149 152 141 145 140 126 111 119 136 325
179 183 198 204 209 203 202 202 190 209 205 204 214 212 201 208 206 195 191 196 196 190 165 172 166 165 158 153 150 147 135 139 138 143 133 119 107 98 115 137 136 74 6
267 242 222 202 207 208 208 205 211 218 214 209 208 214 203 198 200 204 203 198 190 176 164 162 163 159 155 152 141 153 146 139 126 124 122 109 80 90 97 109 125 141 173
294 270 273 253 223 220 225 227 223 220 215 214 215 206 209 204 202 189 199 205 196 182 172 170 166 164 160 151 140 127 117 111 96 109 118 97 101 101 102 105 101 87 128
282 271 245 248 236 232 218 215 219 223 219 205 211 207 211 211 204 200 199 193 197 195 182 177 171 166 161 156 139 134 123 114 106 120 111 116 137 128 111 108 109 123 132
278 282 283 297 270 255 254 250 250 239 233 225 217 208 203 208 208 209 203 191 188 192 190 177 173 159 157 150 143 139 130 134 140 153 131 133 143 128 124 116 118 117 108
320 335 310 286 274 274 250 241 254 254 254 232 216 215 208 199 203 207 198 185 180 189 177 169 163 151 139 128 115 117 119 108 152 182 149 145 135 142 128 101 113 112 109
313 317 313 287 275 278 287 289 281 264 263 242 219 211 207 210 208 202 186 178 170 166 169 168 153 146 142 145 137 137 147 144 177 164 145 153 160 153 133 136 153 143 147
337 320 312 310 307 281 257 246 250 272 283 264 229 227 212 206 200 182 183 173 167 167 158 146 142 141 135 141 135 141 144 151 171 152 147 145 155 151 159 155 176 156 161
320 321 323 323 316 292 279 270 262 251 247 260 245 246 205 192 187 182 180 173 171 165 157 156 151 151 151 159 152 145 141 165 167 166 167 159 164 175 176 188 181 175 160
333 336 325 318 314 305 281 267 262 271 250 224 196 187 186 191 189 176 168 170 166 159 162 157 153 153 142 159 160 160 175 173 174 165 150 151 182 164 145 171 197 95 264
343 332 313 311 307 306 296 273 252 240 239 241 218 194 169 173 165 166 166 156 156 158 152 149 145 138 146 162 159 174 167 179 161 161 153 169 173 181 165 162 174 220 239
326 322 313 290 299 299 288 237 237 236 230 222 225 202 190 168 165 166 160 155 149 148 148 145 143 141 154 157 172 171 166 159 175 153 153 171 165 197 198 171 202 222 252
324 323 320 308 303 294 281 239 247 225 230 204 208 199 183 186 178 167 163 159 152 144 139 138 144 150 154 176 175 165 150 160 153 160 167 179 170 208 224 156 179 217 246
320 321 316 304 294 286 265 248 244 240 235 191 183 184 187 185 174 158 156 154 149 142 144 134 138 142 161 176 177 169 156 160 151 153 144 126 169 190 184 231 180 212 250
313 310 308 305 305 302 264 256 241 248 196 186 186 184 183 184 169 165 161 158 153 151 145 136 145 162 171 180 177 168 156 156 144 141 127 146 179 191 210 277 286 299 77
299 301 300 301 299 294 270 264 254 241 195 185 193 185 177 179 175 167 172 166 163 161 154 158 163 157 154 163 168 162 154 151 119 119 166 182 194 186 278 284 279 86 72
305 304 300 294 293 296 292 268 270 217 185 196 189 178 177 173 170 170 165 173 174 163 159 165 163 150 149 154 145 143 150 155 154 171 173 170 168 191 200 121 88 94 110
308 306 301 295 292 297 292 283 261 201 204 192 177 174 173 170 167 171 164 159 160 173 166 152 146 142 154 157 150 148 140 136 167 153 142 147 165 186 155 135 113 157 256
323 319 311 304 301 298 296 291 238 207 195 178 173 176 167 160 162 152 140 153 150 157 144 138 139 131 135 157 168 169 173 182 188 146 161 175 184 180 172 179 229 234 286